Regional Weather Roundup
Issued by NWS State College, PA

Home | Current Version | Previous Version | Graphics & Text | Print | Product List | Glossary Off
Versions: 1 2 3 4 5 6 7 8 9 10 11 12 13 14 15 16 17 18 19 20 21 22 23 24 25 26 27 28 29 30 31 32 33 34 35 36 37 38 39 40 41 42 43 44 45 46 47 48 49 50

000
ASUS41 KCTP 040403
RWRCTP

REGIONAL WEATHER ROUNDUP
NATIONAL WEATHER SERVICE STATE COLLEGE PA
1200 AM EDT SAT JUL 04 2015

Note: "fair" indicates few or no clouds below 12,000 feet with no
significant weather and/or obstructions to visibility.

* = STATION THAT DOES NOT REPORT PRECIPITATION /E.G. RAIN...SNOW...ETC/
    THUNDER OR FOG.

PAZ002>004-007>009-013>016-020>023-029>032-040500-
WESTERN PENNSYLVANIA

CITY           SKY/WX    TMP DP  RH WIND       PRES   REMARKS
ERIE           MOCLDY    64  50  60 NE5       29.90F
MEADVILLE      CLOUDY    64  53  67 N3        29.92F
FRANKLIN*      CLOUDY    66  59  77 S7        29.93S
NEW CASTLE     LGT RAIN  67  67 100 CALM      29.91S
BEAVER COUNTY  NOT AVBL
BUTLER*        CLOUDY    64  64 100 CALM      29.93R
PITTSBURGH INT CLOUDY    67  65  93 E3        29.89S FOG
PITTSBURGH     CLOUDY    65  61  87 SE6       29.89R
INDIANA*       CLOUDY    66  64  94 E5        29.95F FOG
LATROBE        NOT AVBL
WASHINGTON CO* NOT AVBL
$$

PAZ004>006-010>012-017>019-024>028-033>037-041-042-045-046-049>053-040500-
CENTRAL PENNSYLVANIA

CITY           SKY/WX    TMP DP  RH WIND       PRES   REMARKS
BRADFORD       CLOUDY    62  58  86 SE3       29.96F
DUBOIS         LGT RAIN  68  61  78 SE5       29.94S
CLEARFIELD     RAIN      65  62  90 CALM      29.96S FOG
JOHNSTOWN      CLOUDY    61  58  90 SE8       29.95F
ALTOONA        LGT RAIN  64  62  93 S3        29.96F FOG
STATE COLLEGE  DRIZZLE   67  65  91 CALM      29.95S
WILLIAMSPORT   CLOUDY    72  61  68 CALM      29.92S
SELINSGROVE    LGT RAIN  68  65  90 CALM      29.94S
FT INDIANTOWN  CLOUDY    68  63  85 NE2       29.95S
CAPITAL CITY   CLOUDY    72  61  68 S5        29.94S
HARRISBURG     LGT RAIN  71  64  78 SE3       29.93S
YORK           CLOUDY    71  62  73 CALM      29.94F
$$

PAZ038>040-043-044-047-048-054-055-060>062-067>071-040500-
EASTERN PENNSYLVANIA

CITY           SKY/WX    TMP DP  RH WIND       PRES   REMARKS
SCRANTON       CLOUDY    69  59  70 VRB3      29.96F
MOUNT POCONO   MOCLDY    61  57  87 CALM      30.01S
ALLENTOWN      CLOUDY    73  61  65 S6        29.96S
QUAKERTOWN*    CLOUDY    72  63  73 CALM      29.98S
READING        CLOUDY    72  61  68 SE6       29.95S
LANCASTER      CLOUDY    68  64  87 SE5       29.95S
COATESVILLE    LGT RAIN  68  64  88 S3        29.98S
POTTSTOWN      CLOUDY    71  62  73 VRB3      29.98S
BLUE BELL      CLOUDY    72  63  73 S3        29.96R
DOYLESTOWN     CLOUDY    69  63  81 S3        29.96F
WILLOW GROVE   NOT AVBL
NORTH PHILA    CLOUDY    72  61  68 SE5       29.97F
PHILADELPHIA   CLOUDY    72  64  76 SE5       29.97S
$$



USA.gov is the U.S. government's official web portal to all federal, state and local government web resources and services.